Home > Weather > Porto Acre > Past weeks

Flag for Brazil Past Weather in Porto Acre, Acre, Brazil — Yesterday and Last 2 Weeks

Now
93 °F

Broken clouds.


Feels Like: 98 °F
Forecast: 74 / 96 °F
Wind: 8 mph from Northwest

Location: Rio Branco Airport

Current Time: Aug 29, 2016 at 2:59:58 PM

Latest Report: Aug 29, 2016 at 2:00 PM


Visibility: N/A

Pressure: 29.80 "Hg

Humidity: 44%

Dew Point: 68 °F

Location of Porto AcreLocation

Past Weather in Porto Acre — Graph

°F

Porto Acre Temperature Yesterday

Maximum temperature yesterday: 93 °F (at 1:00 PM)
Minimum temperature yesterday: 73 °F (at 6:00 AM)
Average temperature yesterday: 83 °F

High & Low Weather Summary for the Past Weeks

 TemperatureHumidityPressure
High97 °F (Aug 14, 1:00 PM)100% (Aug 21, 5:00 AM)30.18 "Hg (Aug 21, 5:00 AM)
Low61 °F (Aug 22, 3:00 AM)24% (Aug 23, 12:00 PM)29.74 "Hg (Aug 27, 5:00 PM)
Average81 °F61%29.90 "Hg
* Reported Aug 14 1:00 PM — Aug 29 1:00 PM, Porto Acre, Weather by CustomWeather, © 2016

Note: Actual official high and low records may vary slightly from our data, if they occured in-between our weather recording intervals... More about our weather records

Advertising

Porto Acre Weather History for the Previous 24 Hours

Scroll right to see more
 ConditionsComfort  
Time TempWeatherWind HumidityBarometerVisibility
1:00 PM
Mon, Aug 29
93 °FPartly sunny.9 mph44%29.83 "HgN/A
12:00 PM93 °FScattered clouds.9 mph47%29.89 "HgN/A
11:00 AM91 °FScattered clouds.12 mph49%29.92 "HgN/A
10:00 AM90 °FScattered clouds.12 mph55%29.95 "HgN/A
9:00 AM86 °FClear.6 mph62%29.95 "Hg5 mi
8:00 AM81 °FClear.8 mph74%29.95 "Hg4 mi
7:00 AM75 °FClear.2 mph83%29.92 "Hg2 mi
6:00 AM70 °FSunny.No wind100%29.89 "Hg6 mi
5:00 AM72 °FClear.3 mph88%29.89 "Hg6 mi
4:00 AM72 °FClear.No wind94%29.89 "Hg10 mi
3:00 AM72 °FClear.3 mph94%29.86 "Hg10 mi
2:00 AM73 °FClear.3 mph89%29.86 "Hg10 mi
11:00 PM
Sun, Aug 28
79 °FClear.6 mph70%29.89 "Hg10 mi
9:00 PM79 °FPassing clouds.3 mph65%29.89 "HgN/A
8:00 PM81 °FPassing clouds.3 mph66%29.86 "HgN/A
7:00 PM82 °FPassing clouds.2 mph58%29.86 "HgN/A
6:00 PM84 °FPassing clouds.9 mph55%29.80 "HgN/A
5:00 PM88 °FScattered clouds.12 mph49%29.80 "HgN/A
4:00 PM88 °FScattered clouds.13 mph52%29.80 "HgN/A
3:00 PM90 °FScattered clouds.10 mph52%29.77 "HgN/A
2:00 PM91 °FScattered clouds.12 mph46%29.83 "HgN/A
Weather by CustomWeather, © 2016

See weather overviewHow to use our weather pages